Astrakhan

URWA, Airport temperature: C, qnh:1030 hPa.

Aeroport Astrakhan

IATA: ASF, ICAO: URWA

Charts: CAI GA, Jeppesen

Scenery:

fs9 + Topology and autogen city    fsx                                                        x-plane

МЕТАR:  URWA 271300Z 27001MPS 9999 SCT040 02/M00 Q1030 R27/010070 TEMPO 2000 BR BKN004 RMK QFE775/1033

Astrakhan International Airport. Located on the southern outskirts of the city. Former title – Narimanovo. It was originally a military airfield “Stalin” (present territory of the airport), has received a new name “Narimanovo”. The airfield had dirt runways and one small brick runway. From that moment, and was used as an airport local air lines to the end of the 1970s. In 2008-2010, the reconstruction of the runway of the aerodrome, which was extended to 3200m, the coating is made of armored concrete reinforced asphalt concrete, which allowed the airport to take the aircraft Boeing-737.


Runway 09/27 3200 x 45 m, armored concrete reinforced asphalt.

Airfield Class B, is capable of receiving aircraft AN-24, AN-72, AN-74, B-767, B-757, A-320, A-321, Il-76, Tu-134, Tu-154, Tu 204, Yak-40, Yak-42 and more light, as well as helicopters of all types.

Maximum take-off weight of the aircraft – 191 tons.

Regular daily flights to Moscow is carried out 3 airlines: Aeroflot, S7 Airlines, and UTair. international charter flights in Aktau (Kazakhstan), Istanbul (Turkey) and Bangkok (Thailand) is also performed.